Location: Bothwell
(42.3833°S, 147.0000°E)
Time: 03:56:38
(UTC+10:00)

AO-27 - Visible Passes

Search period start: 28 September 2022 00:00
Search period end: 08 October 2022 01:00
Orbit: 784 x 798 km, 98.9° (Epoch: 27 September)

Date Brightness Start Highest point End Pass type
(mag) Time Alt. Az. Time Alt. Az. Time Alt. Az.
28 Sep 7.9 19:57:36 10° SSE 20:02:44 47° E 20:04:22 36° NE visible
28 Sep 9.8 21:37:42 10° SSW 21:41:52 24° WSW 21:45:07 14° WNW visible
29 Sep 8.6 19:28:55 10° SE 19:33:19 26° E 19:34:57 22° ENE visible
29 Sep 8.8 21:07:55 10° S 21:12:54 42° WSW 21:15:43 23° NW visible
30 Sep 9.3 19:01:06 10° ESE 19:03:46 14° E 19:05:32 12° ENE visible
30 Sep 7.8 20:38:28 10° S 20:43:48 76° WSW 20:46:17 32° NNW visible
30 Sep 10.6 22:20:52 10° SW 22:22:19 11° SW 22:23:46 10° WSW visible
01 Oct 7.6 20:09:18 10° SSE 20:14:34 60° ENE 20:16:52 32° NNE visible
01 Oct 10.1 21:49:50 10° SSW 21:53:32 20° WSW 21:57:13 10° WNW visible
02 Oct 8.3 20:40:27 10° SSE 20:45:12 32° E 20:47:27 23° NE visible
02 Oct 9.2 22:19:53 10° S 22:24:37 33° WSW 22:28:12 16° WNW visible
03 Oct 9.0 20:12:10 10° SE 20:15:42 18° E 20:18:01 14° ENE visible
03 Oct 8.1 21:50:19 10° S 21:55:33 60° WSW 21:58:46 23° NW visible
04 Oct 7.5 21:21:02 10° SSE 21:26:22 76° ENE 21:29:20 27° N visible
04 Oct 10.3 23:02:05 10° SSW 23:05:10 16° WSW 23:08:14 10° W visible
05 Oct 8.0 20:52:03 10° SSE 20:57:03 41° E 20:59:54 23° NNE visible
05 Oct 9.6 22:31:54 10° S 22:36:18 27° WSW 22:40:39 10° WNW visible
06 Oct 8.8 20:23:29 10° SE 20:27:37 22° E 20:30:28 15° NE visible
06 Oct 8.6 22:02:12 10° S 22:07:17 47° WSW 22:11:13 16° NW visible
07 Oct 9.4 19:56:09 10° ESE 19:58:02 12° E 19:59:53 10° ENE visible
07 Oct 7.6 21:32:49 10° SSE 21:38:09 86° WSW 21:41:46 21° NNW visible
07 Oct 10.5 23:14:34 10° SSW 23:16:47 13° WSW 23:18:59 10° W visible
